Regional Weather Roundup
Issued by NWS Wakefield, VA

Home | Current Version | Previous Version | Graphics & Text | Print | Product List | Glossary On
Versions: 1 2 3 4 5 6 7 8 9 10 11 12 13 14 15 16 17 18 19 20 21 22 23 24 25 26 27 28 29 30 31 32 33 34 35 36 37 38 39 40 41 42 43 44 45 46 47 48 49 50
000
ASUS41 KAKQ 011910
RWRAKQ

REGIONAL WEATHER ROUNDUP
NATIONAL WEATHER SERVICE WAKEFIELD VA
300 PM EDT FRI AUG 01 2014

Note: "fair" indicates few or no clouds below 12,000 feet with no
significant weather and/or obstructions to visibility. * = Denotes
station may not report precipitation (e.g., rain,snow,etc.),
thunder or fog.

VAZ042-051-052>054-056-012000-
NORTHERN VIRGINIA

CITY           SKY/WX    TMP DP  RH WIND       PRES   REMARKS
WASH NATIONAL  LGT RAIN  78  63  59 CALM      30.18F
DULLES         CLOUDY    75  65  70 SW5       30.19F
FORT BELVOIR   LGT RAIN  76  67  76 NW2       30.18F
QUANTICO       LGT RAIN  76  65  68 E3        30.19F
FREDERICKSBRG* CLOUDY    76  67  73 E3        30.17F
STAFFORD*      DRIZZLE   74  74  99 N3        30.22F
WARRENTON      CLOUDY    75  70  84 CALM      30.19F
CULPEPER*      CLOUDY   N/A N/A N/A CALM      30.20S
MANASSAS*      NOT AVBL
LEESBURG*      CLOUDY    77  68  73 W5        30.21S
WINCHESTER     CLOUDY    70  64  83 S3        30.20F
$$

VAZ048-049-060>072-079>083-012000-
CENTRAL AND SOUTH CENTRAL VIRGINIA...AND NORTH CENTRAL NORTH CAROLINA

CITY           SKY/WX    TMP DP  RH WIND       PRES   REMARKS
RICHMOND       LGT RAIN  75  70  84 NE5       30.18F
CHESTERFIELD*  CLOUDY    73  61  64 E5        30.19F
HANOVER        LGT RAIN  73  69  87 CALM      30.19F FOG
TAPPAHANNOCK*  CLOUDY    75  68  77 CALM      30.20R
CHARLOTTSVILLE CLOUDY    72  64  76 CALM      30.19F
ORANGE*        CLOUDY    72  64  78 N3        30.20F
LOUISA*        CLOUDY    72  66  83 CALM      30.17F
FARMVILLE*     CLOUDY    72  72 100 NE10      30.15F
SOUTH HILL*    LGT RAIN  73  72  94 CALM      30.19F
ROANOKE RAPIDS LGT RAIN  68  63  83 NE13      30.14F
RALEIGH        RAIN      70  63  78 NE9       30.10F FOG
$$

VAZ088>098-012000-
SOUTHEAST VIRGINIA

CITY           SKY/WX    TMP DP  RH WIND       PRES   REMARKS
NORFOLK        LGT RAIN  75  69  81 NE12      30.16F
VIRGINIA BEACH LGT RAIN  75  68  78 NE10      30.16F
NORFOLK NAVAL  LGT RAIN  76  69  79 E12       30.18F
WEST POINT*    CLOUDY    76  69  79 NE3       30.20S
NEWPORT NEWS   LGT RAIN  76  66  71 NE7       30.18R
LANGLEY AFB    LGT RAIN  74  69  85 E12       30.16F
FORT EUSTIS    DRIZZLE   75  68  78 E6        30.15F
WILLIAMSBURG*  CLOUDY    79  68  69 E8        30.19S
FRANKLIN*      CLOUDY    73  66  78 NE6       30.17R
WAKEFIELD      LGT RAIN  76  67  73 CALM      30.17S
$$

VAZ020-022-025-037-045-012000-
WESTERN AND SOUTHWEST VIRGINIA

CITY           SKY/WX    TMP DP  RH WIND       PRES   REMARKS
STAUNTON*      CLOUDY    72  63  73 CALM      30.22F
HOT SPRINGS VA CLOUDY    59  56  88 SE8       30.29F
LYNCHBURG      CLOUDY    69  64  84 NE9       30.19S
DANVILLE       CLOUDY    71  66  84 NE9       30.15F
MARTINSVILLE   CLOUDY    74  63  68 E7        30.18F
ROANOKE        CLOUDY    72  62  71 NE3       30.20F
BLACKSBURG       N/A    N/A N/A N/A MISG      30.23S
DUBLIN*        CLOUDY    70  63  78 E9        30.22F
MARION*        CLOUDY    68  58  70 E7        30.23F
HILLSVILLE*    RAIN      62  60  93 E5        30.22S
RICHLANDS*     MOCLDY    74  60  62 SE10G17   30.19F
WISE*          MOSUNNY   77  55  47 SE3       30.18F
ABINGDON*      MOSUNNY   75  60  58 E12       30.16F
$$

MDZ021>025-VAZ099-100-012000-
SOUTHERN MARYLAND AND THE DELMARVA PENINSULA

CITY           SKY/WX    TMP DP  RH WIND       PRES   REMARKS
PATUXENT RIVER LGT RAIN  75  68  78 E7        30.18F
BAY BRIDGE APT   N/A     79  64  61 W5        30.18S
LEONARDTOWN    CLOUDY    73  68  83 CALM      30.21R
DOVER          CLOUDY    78  71  78 S7        30.18R
GEORGETOWN     CLOUDY    78  69  73 SE10      30.19F
EASTON         NOT AVBL
CAMBRIDGE      CLOUDY    79  68  69 SE6       30.18S
SALISBURY      CLOUDY    78  66  66 SE7       30.19F
OCEAN CITY     CLOUDY    75  69  81 E5        30.19F
WALLOPS ISLAND CLOUDY    77  68  73 SE10      30.19F
ACCOMACK*      LGT RAIN  73  66  78 CALM      30.19F
$$

NCZ012>017-030>032-012000-
EASTERN NORTH CAROLINA

CITY           SKY/WX    TMP DP  RH WIND       PRES   REMARKS
ELIZABETH CITY HVY RAIN  71  66  84 E9        30.14S
AHOSKIE*       CLOUDY    69  66  93 E6        30.14F
EDENTON*       LGT RAIN  72  69  92 NE10G17   30.11F
CURRITUCK*     RAIN      73  66  78 E7        30.15F
KILL DEVIL HLS RAIN      74  73  95 E8        30.12S
MANTEO         NOT AVBL
CAPE HATTERAS  LGT RAIN  75  73  93 N3        30.12F
GOLDSBORO      CLOUDY    73  73 100 E10       30.05F
WASHINGTON     CLOUDY    72  70  93 SE8       30.11S
GREENVILLE     CLOUDY    70  70 100 NE10      30.11F
NEW BERN       LGT RAIN  75  71  87 E5        30.09F
WILMINGTON     CLOUDY    79  74  84 SE7       30.04F
$$

VAZ048-012000-
ELSEWHERE

CITY           SKY/WX    TMP DP  RH WIND       PRES   REMARKS
HARRISBURG PA  CLOUDY    77  65  66 W16       30.16R
BALTIMORE      CLOUDY    80  59  48 SW8       30.17F
ANNAPOLIS      CLOUDY    79  64  60 S5        30.17F
ANDREWS AFB    CLOUDY    77  64  65 VRB1      30.18F
WILMINGTON DE  LGT RAIN  72  66  81 S12       30.19S
PHILADELPHIA   LGT RAIN  78  69  73 S12       30.18S
WILDWOOD NJ*   CLOUDY    75  66  73 SE6       30.21F
ATLANTIC CITY  CLOUDY    77  65  66 SE9       30.21S
HENDERSON NC   LGT RAIN  68  63  84 NE8       30.13S
GREENSBORO     LGT RAIN  67  66  97 NE9       30.12S FOG
ROCKY MOUNT    CLOUDY    70  67  90 NE13G20   30.10F
FAYETTEVILLE   CLOUDY    73  71  93 NE8       30.05F FOG
CHARLOTTE      CLOUDY    70  64  81 N7        30.09F
$$

VAZ100-012000-
MARINE

STATION/POSITION TIME  TEMP    WIND        PRES    WAVE   SWELL
                       AIR SEA DIR/SP/G            HT/PER HT/PER
                 (UTC) (F)     (DEG/KT/KT) (MB)    (FT/S) (FT/S)
44066 TX TWR #4  1900   75 75  130/  8/ 10 1023.1F   3/ 7   3/ 7
CAPE MAY NJ      1900   74 76  130/  5/  6 1022.2F
LEWES DE         1900   76 72  140/  6/ 10 1022.2F
15NM E FENWICK I 1900   75 76              1022.8F   2/ 8
OCEAN-CITY-INLET 1900   75 70  110/  4/  6 1022.2F
WACHAPREAGUE VA  1900   75 78   80/  7/ 10 1022.3R
THOMAS POINT MD  1900   75 78  220/  3/  3 1022.3F
GOOSES REEF MD   1900   75      60/  4/  4 1022.3F
COVE POINT MD    1900   74      60/  4/  5 1022.0S
SOLOMONS ISLAND  1900      80                N/A
BISHOPS HEAD MD  1900   76 78   70/  4/  5 1021.9F
PINEY POINT MD   1900           90/  5/  7   N/A
POTOMAC MD       1900   75      80/  8/ 10 1021.5F
CAMBRIDGE MD     1900   76 78   90/  2/  4 1021.7F
LEWISETTA VA     1900   75 78  100/  9/ 10 1022.1R
RAPPAHANNOCK LGT 1900           80/ 11/ 14 1022.5F
STINGRAY PT      1900   77     100/ 12/ 14 1022.6R
YORK RVR RNG VA  1900   75     100/ 12/ 14 1021.4F
YORKTOWN VA      1900   76 79  110/ 11/ 12 1021.7F
JAMESTOWN VA     1900   75     110/ 10/ 14   N/A
DOMINION TERM VA 1900   74      40/  5/  7 1021.5F
KIPTOPEKE VA     1900      80   80/  6/  9   N/A
CHES BAY BRIDGE  1900   75 76   40/ 13/ 16 1021.0R
CAPE HENRY VA    1900   76      60/ 14/ 16 1020.2S
WILLOUBY STN VA  1900           70/ 14/ 15 1020.6F
S CRANEY ISL VA  1900           30/ 12/ 14 1021.4S
CAPE HENRY BUOY  1900      76                N/A     3/ 7
1ST LANDING BUOY 1900   76      50/ 10/ 14 1021.3S
CAPE CHARLES BUO 1900      74                N/A     3/ 7
OFFSHORE WE BUOY 1900      77                N/A     3/ 8
64NM E OF VA BCH 1900   76 78   60/ 16/ 17 1020.5F   3/ 7   2/ 7
DUCK PIER NC     1900   74 76   60/ 19/ 21 1019.7F
44056 DUCK FRF   1900                        N/A     4/ 4
OREGON INLET NC  1900   73 78   90/  7/ 13 1020.3F
HATTERAS NC      1900   74 79   10/  1/  2 1020.2F
DIAMOND SHLS NC  1900          VRB  6/ 10  1020.0R   3/ 6   3/ 6
CAPE LOOKOUT NC  1800   73     270/  9/ 10 1019.5R
$$



USA.gov is the U.S. government's official web portal to all federal, state and local government web resources and services.